Погода во Внуково

Россия / Московская область     55°38′47″N   37°15′58″E
темп.,
°C
ветер,
м/с
пор.,
м/с
влажн.,
%
обл.,
%
осадки,
мм/ч
давл.,
гПа
погр.,
м
6 марта, сб
сб600:00−10зсз23900 0.0 101527
03:00−11сз23910 0.0 101634
06:00−11зсз23959 0.0 101676
09:00−10зсз25949 0.0 1017234
12:00−5зсз358082 0.0 1017931
15:00−5зсз467590 0.3 10151185
18:00−8з248481 0.1 101586
21:00−10зюз359043 0.1 1014110
7 марта, вс
вс700:00−10юз498933 0.0 1011233
03:00−8юз6138465 0.0 1007638
06:00−6юз71492100 0.8 10021034
09:00−4юз71593100 1.8 9971181
12:00−2юз81592100 1.4 9921247
15:00−4зсз91590100 3.6 9911349
18:00−6з5136837 0.2 994631
21:00−7з399449 0.4 996495
8 марта, пн
пн800:00−8зюз389175 0.3 995243
03:00−8св119787 1.3 99544
06:00−11сз399494 0.1 995212
09:00−10зсз6128675 0.1 998756
12:00−7зсз61085100 0.1 10011053
15:00−6сз6984100 0.3 10041122
18:00−9сз4988100 0.1 1007539
21:00−12сз369595 0.1 1010155
9 марта, вт
вт900:00−13ссз249775 0.0 101299
03:00−16сз249774 0.1 101489
06:00−18ссз259750 0.0 101597
09:00−17ссз369449 0.0 1017269
12:00−14ссз358794 0.0 1018601
15:00−12ссз468193 0.0 1019772
18:00−15сз248997 0.0 1019101
21:00−19ссз239458 0.0 102222
10 марта, ср
ср1000:00−21с12970 0.0 102320
03:00−23с11970 0.0 102420
06:00−24ссв12974 0.0 102420
09:00−21св23942 0.0 1025166
12:00−17ссв358838 0.0 1023449
15:00−15ссв348354 0.0 1024599
18:00−17ссв249057 0.0 1025133
21:00−21ссв249529 0.0 102793